Location: Capelle
(50.3413°N, 1.9974°E)
Time: 20:13:29
(UTC+00:00)

USA 59 Rocket - Pass Details

Date: 12 January 2026
Orbit: 369 x 1672 km, 63.3° (Epoch: 16 February)

Event Time Altitude Azimuth Distance (km) Brightness Sun altitude
Rises 18:58:58 0° 320° (NW) 2,294 3.5 -25.6°
Reaches altitude 10° 19:00:54 10° 329° (NNW) 1,502 2.4 -25.9°
Enters shadow 19:01:03 11° 330° (NNW) 1,441 2.2 -26.0°
